Simultaneous Nadir Overpasses (SNOs) Predictions

Prediction of SNOs between AQUA and NPP Satellite Orbit:

Table of predicted SNOs for the next 14.0 days since TLE Epoch: 4/12/2019
Index Date (AQUA) Time (AQUA) Lat,Lon (AQUA) SZA (AQUA ) Date (NPP) Time (NPP) Lat,Lon (NPP) SZA (NPP ) Distance(km) Time Diff (sec)
1 04/15/2019 06:22:19 -75.40, 141.76 91.59 04/15/2019 06:21:24 -75.40, 141.77 91.54 0.26 55
2 04/15/2019 07:11:24 76.37, -47.66 87.29 04/15/2019 07:11:46 76.36, -47.70 87.28 1.44 22
3 04/17/2019 22:38:36 -75.83,-101.12 93.03 04/17/2019 22:38:11 -75.83,-101.12 93.01 0.11 25
4 04/17/2019 23:27:45 76.64, 69.15 86.01 04/17/2019 23:28:37 76.64, 69.08 85.98 1.95 52
5 04/20/2019 14:05:47 75.25,-154.51 86.70 04/20/2019 14:04:34 75.26,-154.43 86.74 2.42 73
6 04/20/2019 14:54:55 -76.19, 15.91 94.39 04/20/2019 14:55:00 -76.20, 15.91 94.40 0.22 5
7 04/23/2019 06:22:04 75.72, -37.29 85.26 04/23/2019 06:21:21 75.73, -37.21 85.27 2.50 43
8 04/23/2019 07:11:13 -76.60, 133.13 95.78 04/23/2019 07:11:48 -76.60, 133.16 95.82 0.87 35
9 04/25/2019 22:38:30 75.74, 78.64 84.35 04/25/2019 22:38:18 75.73, 78.55 84.39 2.77 12




NCC Satellite Simultaneous Nadir Overpasses (SNOs) Prediction Service
